When you browse on this site, cookies collect data to enhance your experience and personalize the content and advertising you see.
Visit our Privacy Policy to learn more. By continuing to use the site, you agree to this use of cookies and data.

Meteo pe oră la Alho

Astăzi, 12 August, Miercuri

Timp Temperatura Precipitaţii Vânt Presiune Umiditate
00:00 +9°C° 0 mm 2 m/s 762 mmHg 80%
01:00 +9°C° 0 mm 2 m/s 762 mmHg 83%
02:00 +9°C° 0 mm 2 m/s 762 mmHg 86%
03:00 +9°C° 0 mm 2 m/s 762 mmHg 87%
04:00 +10°C° 0 mm 1 m/s 762 mmHg 88%
05:00 +10°C° 0 mm 1 m/s 762 mmHg 89%
06:00 +12°C° 0 mm 2 m/s 762 mmHg 81%
07:00 +13°C° 0 mm 2 m/s 762 mmHg 74%
08:00 +15°C° 0 mm 2 m/s 762 mmHg 66%
09:00 +16°C° 0 mm 2 m/s 762 mmHg 62%
10:00 +16°C° 0 mm 2 m/s 762 mmHg 57%
11:00 +17°C° 0 mm 2 m/s 762 mmHg 53%
12:00 +17°C° 0 mm 2 m/s 761 mmHg 51%
13:00 +17°C° 0 mm 2 m/s 761 mmHg 50%
14:00 +18°C° 0 mm 1 m/s 761 mmHg 48%
15:00 +18°C° 0 mm 1 m/s 761 mmHg 50%
16:00 +18°C° 0 mm 1 m/s 761 mmHg 51%
17:00 +18°C° 0 mm 1 m/s 760 mmHg 53%
18:00 +15°C° 0 mm 1 m/s 760 mmHg 57%
19:00 +14°C° 0 mm 1 m/s 760 mmHg 62%
20:00 +12°C° 0 mm 0 m/s 760 mmHg 66%
21:00 +12°C° 0 mm 0 m/s 760 mmHg 67%
22:00 +12°C° 0 mm 0 m/s 760 mmHg 68%
23:00 +11°C° 0 mm 0 m/s 760 mmHg 69%

Mâine, 13 August, Joi

Timp Temperatura Precipitaţii Vânt Presiune Umiditate
00:00 +12°C° 0 mm 1 m/s 760 mmHg 70%
01:00 +12°C° 0 mm 1 m/s 759 mmHg 72%
02:00 +11°C° 0 mm 1 m/s 759 mmHg 73%
03:00 +11°C° 0 mm 1 m/s 759 mmHg 74%
04:00 +11°C° 0 mm 1 m/s 759 mmHg 75%
05:00 +11°C° 0 mm 1 m/s 759 mmHg 76%
06:00 +12°C° 0 mm 1 m/s 759 mmHg 70%
07:00 +14°C° 0 mm 2 m/s 759 mmHg 64%
08:00 +15°C° 0 mm 2 m/s 759 mmHg 58%
09:00 +16°C° 0 mm 2 m/s 759 mmHg 54%
10:00 +17°C° 0 mm 2 m/s 759 mmHg 50%
11:00 +18°C° 0 mm 2 m/s 759 mmHg 46%
12:00 +19°C° 0 mm 2 m/s 759 mmHg 45%
13:00 +19°C° 0 mm 2 m/s 758 mmHg 44%
14:00 +19°C° 0 mm 2 m/s 758 mmHg 44%
15:00 +19°C° 0 mm 2 m/s 758 mmHg 45%
16:00 +19°C° 0 mm 2 m/s 758 mmHg 46%
17:00 +18°C° 0 mm 2 m/s 758 mmHg 47%
18:00 +16°C° 0 mm 1 m/s 758 mmHg 54%
19:00 +15°C° 0 mm 1 m/s 758 mmHg 62%
20:00 +13°C° 0 mm 1 m/s 758 mmHg 69%
21:00 +12°C° 0 mm 1 m/s 758 mmHg 70%
22:00 +12°C° 0 mm 1 m/s 759 mmHg 72%
23:00 +11°C° 0 mm 1 m/s 759 mmHg 73%

Poimâine, 14 August, Vineri

Timp Temperatura Precipitaţii Vânt Presiune Umiditate
00:00 +11°C° 0 mm 1 m/s 759 mmHg 74%
01:00 +10°C° 0 mm 1 m/s 759 mmHg 76%
02:00 +10°C° 0 mm 1 m/s 759 mmHg 77%
03:00 +10°C° 0 mm 1 m/s 759 mmHg 79%
04:00 +10°C° 0 mm 1 m/s 759 mmHg 81%
05:00 +10°C° 0 mm 1 m/s 759 mmHg 82%
06:00 +12°C° 0 mm 1 m/s 759 mmHg 76%
07:00 +14°C° 0 mm 1 m/s 759 mmHg 69%
08:00 +16°C° 0 mm 1 m/s 759 mmHg 63%
09:00 +19°C° 0 mm 1 m/s 759 mmHg 57%
10:00 +20°C° 0 mm 1 m/s 759 mmHg 52%
11:00 +20°C° 0 mm 2 m/s 759 mmHg 47%
12:00 +20°C° 0 mm 2 m/s 759 mmHg 46%
13:00 +20°C° 0 mm 2 m/s 758 mmHg 45%
14:00 +21°C° 0 mm 2 m/s 758 mmHg 44%
15:00 +21°C° 0 mm 2 m/s 758 mmHg 46%
16:00 +21°C° 0 mm 2 m/s 758 mmHg 47%
17:00 +21°C° 0 mm 2 m/s 758 mmHg 48%
18:00 +19°C° 0 mm 2 m/s 758 mmHg 55%
19:00 +17°C° 0 mm 2 m/s 758 mmHg 62%
20:00 +15°C° 0 mm 2 m/s 758 mmHg 69%
21:00 +15°C° 0 mm 2 m/s 758 mmHg 71%
22:00 +14°C° 0 mm 2 m/s 758 mmHg 74%
23:00 +14°C° 0 mm 2 m/s 758 mmHg 77%

15 August, Sâmbătă

Timp Temperatura Precipitaţii Vânt Presiune Umiditate
00:00 +14°C° 0 mm 2 m/s 758 mmHg 81%
01:00 +13°C° 0 mm 2 m/s 758 mmHg 86%
02:00 +13°C° 0 mm 2 m/s 757 mmHg 91%
03:00 +13°C° 0 mm 2 m/s 757 mmHg 92%
04:00 +12°C° 0 mm 3 m/s 757 mmHg 93%
05:00 +12°C° 0 mm 3 m/s 757 mmHg 95%
06:00 +14°C° 0 mm 3 m/s 757 mmHg 89%
07:00 +16°C° 0 mm 3 m/s 757 mmHg 83%
08:00 +18°C° 0 mm 3 m/s 757 mmHg 78%
09:00 +19°C° 0 mm 3 m/s 757 mmHg 72%
10:00 +21°C° 0 mm 3 m/s 757 mmHg 67%
11:00 +22°C° 0 mm 3 m/s 757 mmHg 61%
12:00 +24°C° 0 mm 3 m/s 757 mmHg 58%
13:00 +25°C° 0 mm 3 m/s 757 mmHg 55%
14:00 +25°C° 0 mm 3 m/s 757 mmHg 51%
15:00 +25°C° 0 mm 3 m/s 757 mmHg 52%
16:00 +25°C° 0 mm 3 m/s 756 mmHg 53%
17:00 +25°C° 0 mm 3 m/s 756 mmHg 54%
18:00 +24°C° 0 mm 3 m/s 756 mmHg 60%
19:00 +21°C° 0 mm 3 m/s 756 mmHg 66%
20:00 +20°C° 0 mm 3 m/s 756 mmHg 72%
21:00 +19°C° 0 mm 3 m/s 756 mmHg 76%
22:00 +19°C° 0 mm 3 m/s 756 mmHg 80%
23:00 +18°C° 0 mm 3 m/s 756 mmHg 84%

16 August, Duminică

Timp Temperatura Precipitaţii Vânt Presiune Umiditate
00:00 +17°C° 0 mm 3 m/s 756 mmHg 85%
01:00 +17°C° 0 mm 3 m/s 756 mmHg 87%
02:00 +17°C° 0 mm 2 m/s 756 mmHg 88%
03:00 +16°C° 0 mm 2 m/s 756 mmHg 84%
04:00 +16°C° 0 mm 2 m/s 756 mmHg 81%
05:00 +15°C° 0 mm 2 m/s 756 mmHg 78%
06:00 +17°C° 0 mm 2 m/s 756 mmHg 70%
07:00 +19°C° 0 mm 2 m/s 756 mmHg 62%
08:00 +21°C° 0 mm 2 m/s 756 mmHg 54%
09:00 +23°C° 0 mm 2 m/s 756 mmHg 50%
10:00 +25°C° 0 mm 3 m/s 756 mmHg 46%
11:00 +26°C° 0 mm 3 m/s 756 mmHg 42%
12:00 +27°C° 0 mm 3 m/s 756 mmHg 42%
13:00 +28°C° 0 mm 3 m/s 756 mmHg 42%
14:00 +28°C° 0 mm 3 m/s 756 mmHg 42%
15:00 +28°C° 0 mm 3 m/s 756 mmHg 43%
16:00 +28°C° 0 mm 3 m/s 755 mmHg 44%
17:00 +28°C° 0 mm 3 m/s 755 mmHg 45%
18:00 +26°C° 0 mm 3 m/s 755 mmHg 52%
19:00 +24°C° 0 mm 2 m/s 755 mmHg 59%
20:00 +21°C° 0 mm 2 m/s 755 mmHg 65%
21:00 +20°C° 0 mm 2 m/s 755 mmHg 68%
22:00 +19°C° 0 mm 2 m/s 755 mmHg 71%
23:00 +18°C° 0 mm 2 m/s 756 mmHg 74%

17 August, Luni

Timp Temperatura Precipitaţii Vânt Presiune Umiditate
00:00 +18°C° 0 mm 2 m/s 756 mmHg 77%
01:00 +17°C° 0 mm 2 m/s 756 mmHg 80%
02:00 +16°C° 0 mm 2 m/s 756 mmHg 83%
03:00 +16°C° 0 mm 2 m/s 756 mmHg 83%
04:00 +16°C° 0 mm 2 m/s 756 mmHg 82%
05:00 +16°C° 0 mm 2 m/s 757 mmHg 81%
06:00 +17°C° 0 mm 2 m/s 757 mmHg 74%
07:00 +19°C° 0 mm 2 m/s 757 mmHg 67%
08:00 +20°C° 0 mm 2 m/s 757 mmHg 59%
09:00 +21°C° 0 mm 2 m/s 757 mmHg 55%
10:00 +23°C° 0 mm 2 m/s 757 mmHg 50%
11:00 +24°C° 0 mm 2 m/s 757 mmHg 45%
12:00 +24°C° 0 mm 2 m/s 757 mmHg 48%
13:00 +24°C° 0 mm 1 m/s 757 mmHg 50%
14:00 +23°C° 0 mm 1 m/s 757 mmHg 52%
15:00 +23°C° 0 mm 1 m/s 757 mmHg 54%
16:00 +23°C° 0 mm 1 m/s 756 mmHg 55%
17:00 +23°C° 0 mm 1 m/s 756 mmHg 57%
18:00 +22°C° 0 mm 1 m/s 756 mmHg 61%
19:00 +19°C° 0 mm 2 m/s 756 mmHg 66%
20:00 +18°C° 0 mm 2 m/s 756 mmHg 70%
21:00 +18°C° 0.1 mm 2 m/s 756 mmHg 73%
22:00 +17°C° 0.1 mm 2 m/s 756 mmHg 76%
23:00 +17°C° 0.1 mm 2 m/s 755 mmHg 79%
Arată mai mult